Terminal Aerodrome Forecast
Issued by NWS Sterling, VA

Current Version | Previous Version | Graphics & Text | Print | Product List | Glossary On
Versions: 1 2 3 4 5 6 7 8 9 10 11 12 13 14 15 16 17 18 19 20 21 22 23 24 25
000
FTUS41 KLWX 242100 AAA
TAFIAD
TAF AMD
KIAD 242105Z 2421/2524 20011G20KT P6SM FEW040
     FM250000 22009KT P6SM SCT250
     FM250600 25005KT P6SM SCT250
     FM250900 31005KT P6SM SCT150=

USA.gov is the U.S. government's official web portal to all federal, state and local government web resources and services.